SL-16 DEB, 29100

Orbit data source: Space-Track

SL-16 DEB, 29100 is space debris in LEO originally from a launch on Fri, 26 Mar 1993 UTC launched from the Tyuratam Missile And Space Complex (TTMTR). Debris objects in space refer to the collection of defunct objects orbiting the Earth. Examples of debris include non-operational satellites, rocket bodies, and fragments generated from explosions, collisions, or faulty payload assembly.

Loading next visibility...
SL-16 DEB details
Identifier
29100, 1993-016AP
Orbit
LEO
Last TLE update2 weeks ago
Origin
Flag of CISRVSN RF (CIS)
ManufacturerUnknown
MissionSpacecraft
Bus & MotorUnknown
MassUnknown
Launch date (UTC)
1993-03-26 (32 years ago)
Launch vehicleUnknown
Launch site
Tyuratam Missile And Space Complex (TTMTR)
Object type
Payload
Rocket body
Debris
Shape & HBRUnknown
Radar Cross SectionSmall (<0.1 m²)

Expand to show TLE details & history

TLE from 2 weeks ago
0 SL-16 DEB
1 29100U 93016AP  25013.94266249  .00001629  00000-0  91040-3 0  9999
2 29100  70.7261  92.5274 0070703 119.3983 241.4219 14.11086285158134
Epoch: 2025-01-13T22:37Z
Definitive object data (Epoch: 2025-01-13T22:37:26.039Z)
Latitude-0.00001°
Longitude-0.48757°
Altitude882.782 km
Speed7.398 km/s
True Right ascension06h 10m 06s
True Declination0° 00' 00"
Sunlit
Object was in full shadow at TLE epoch
Visualization TLE readout
Latitude68.15875°
Longitude37.19821°
Altitude820.178 km
Speed7.474 km/s
Apparent Right ascension05h 10m 39s
Apparent Declination23° 11' 02"
Sunlit
Object is in full shadow
Visualization observer readout
Local Sidereal Time15:27:29
Azimuth334.353° NNW
Elevation-22.47°
Doppler factor1
Orbital elements
Apogee altitude904.743 km
Perigee altitude802.482 km
Semi-major axis7,231.749 km
Eccentricity0.0070703
Inclination70.7261°
RAAN92.5274°
Arg. of periapsis119.3983°
True anomaly240.71343°
Mean anomaly241.4219°
Eccentric anomaly241.06736°
Mean motion3.52921 °/min
BSTAR0.0009104
Orbital period102.01 mins
Loading maneuver chart data...
Loading historical data...
Loading historical data...
Loading historical data...
Loading historical data...
Loading historical data...
Loading historical data...
Loading historical data...

SL-16 DEB Visibility forecast

Observer location: undefined°, undefined

Span
Click to sort rows by Start time (UTC) header in descending order
Start Az.
Max El. time (UTC)
Max El. Az.
Max El.
End time (UTC)
End Az.
9 mins2025-01-24 14:23:21.378Z331.081° NNW2025-01-24 14:27:21.378Z284.868° WNW42.891°2025-01-24 14:32:21.378Z167.213° S
8 mins2025-01-25 03:33:21.378Z160.213° S2025-01-25 03:37:21.378Z94.095° ESE29.488°2025-01-25 03:41:21.378Z43.677° NE
8 mins2025-01-25 05:17:21.378Z246.63° WSW2025-01-25 05:21:21.378Z305.113° NW27.547°2025-01-25 05:25:21.378Z0.241° NNE
5 mins2025-01-25 12:30:21.378Z29.867° NE2025-01-25 12:32:21.378Z56.353° ENE16.467°2025-01-25 12:35:21.378Z90.559° ESE
|